KUIPER-00442

导读

KUIPER-00442(NORAD编号68943)是亚马逊柯伊伯(Kuiper)项目的一颗试验通信卫星,柯伊伯项目旨在构建全球低轨卫星互联网星座,计划部署数千颗卫星提供全域宽带接入服务。该卫星作为项目测试星之一,用于验证星座技术方案与通信性能。它运行在近地轨道,由SpaceX猎鹰9号火箭发射升空,承担关键技术验证任务,为后续大规模星座部署积累在轨运行数据,是亚马逊构建空间互联网基础设施的重要组成部分,推动了全球卫星通信网络建设进程。

Basic Information
目录编号:
68943
目录名称:
KUIPER-00442
国际标识:
2026-098AA
轨道中心:
EARTH
卫星名称:
KUIPER-00442
卫星全名:
KUIPER-00442
卫星状态:
在轨 (已飞行128 天)
发射日期:
2026-04-30 UTC
国别 :
美国 (US)
星等 :
--
Orbit Information
数据来源 国际轨道数据
星历时间: 2026-09-05T12:46:15+0800
4小时前
查看轨道信息
半长轴: 7018.468km
偏心率: 0.0001801
轨道倾角: 51.903°
近地点辐角 99.562°
升交点赤经 56.679°
平近点角 260.555°
近地点: 639.066km
远地点: 641.596km
周期: 97.527分钟
每日圈数: 14.765199
Detailed Information
使用方式:
暂无
2D Orbit Map
3D Orbit Map
Orbit Altitude Analysis Chart
Orbit Inclination Analysis Chart
Orbit Comprehensive Analysis Chart
View Comprehensive Chart
Conjunction Data List
Event ID Objects TCA Miss Dist (km) Collision Risk Probability Collision Risk Index (CRI) Action
CDM_260903-035303-398206-894327
2026-09-03T
03:53:10+0000
1.804 km
极远距离
3.486266E-6 低风险 0.46